TimeEDT,TemperatureF,Dew PointF,Humidity,Sea Level PressureIn,VisibilityMPH,Wind Direction,Wind SpeedMPH,Gust SpeedMPH,PrecipitationIn,Events,Conditions,WindDirDegrees,DateUTC
12:53 AM,70.0,66.0,87,30.05,10.0,SW,9.2,-,0.00,,Overcast,220,2013-07-08 04:53:00
1:53 AM,70.0,66.0,87,30.03,10.0,SW,5.8,-,N/A,,Overcast,220,2013-07-08 05:53:00
2:53 AM,69.1,66.0,90,30.03,8.0,South,6.9,-,N/A,,Overcast,180,2013-07-08 06:53:00
3:53 AM,69.1,64.9,87,30.03,9.0,SSE,3.5,-,N/A,,Mostly Cloudy,160,2013-07-08 07:53:00
4:53 AM,69.1,66.0,90,30.04,9.0,South,4.6,-,N/A,,Mostly Cloudy,180,2013-07-08 08:53:00
5:53 AM,69.1,66.0,90,30.03,6.0,South,4.6,-,N/A,,Mostly Cloudy,180,2013-07-08 09:53:00
6:53 AM,69.1,66.0,90,30.03,6.0,South,6.9,-,N/A,,Mostly Cloudy,180,2013-07-08 10:53:00
7:53 AM,71.1,66.9,87,30.05,6.0,WSW,4.6,-,N/A,,Mostly Cloudy,250,2013-07-08 11:53:00
8:53 AM,73.9,68.0,82,30.04,10.0,South,8.1,-,N/A,,Mostly Cloudy,190,2013-07-08 12:53:00
9:53 AM,75.9,69.1,79,30.05,10.0,SSW,6.9,-,N/A,,Overcast,200,2013-07-08 13:53:00
10:53 AM,80.1,71.1,74,30.05,10.0,South,8.1,-,N/A,,Mostly Cloudy,170,2013-07-08 14:53:00
11:53 AM,81.0,71.1,72,30.04,10.0,South,8.1,-,N/A,,Overcast,170,2013-07-08 15:53:00
12:53 PM,81.0,71.1,72,30.04,10.0,South,10.4,-,N/A,,Overcast,180,2013-07-08 16:53:00
1:53 PM,82.9,72.0,69,30.00,10.0,SE,9.2,-,N/A,,Overcast,140,2013-07-08 17:53:00
2:06 PM,80.6,69.8,70,30.02,0.8,SSW,23.0,29.9,0.00,Rain,Light Rain,200,2013-07-08 18:06:00
2:08 PM,78.8,66.2,65,30.01,7.0,South,20.7,29.9,0.00,Rain-Thunderstorm,Light Thunderstorms and Rain,190,2013-07-08 18:08:00
2:25 PM,77.0,66.2,69,30.00,10.0,South,9.2,-,0.00,Rain,Light Rain,170,2013-07-08 18:25:00
2:53 PM,77.0,68.0,74,30.00,10.0,SSE,10.4,-,0.00,,Overcast,160,2013-07-08 18:53:00
3:28 PM,78.8,69.8,74,30.01,10.0,South,11.5,-,N/A,Rain-Thunderstorm,Light Thunderstorms and Rain,170,2013-07-08 19:28:00
3:53 PM,75.9,71.1,85,30.01,4.0,West,9.2,-,N/A,Rain-Thunderstorm,Light Thunderstorms and Rain,260,2013-07-08 19:53:00
4:31 PM,75.2,69.8,83,30.02,2.0,SSE,19.6,27.6,N/A,Rain-Thunderstorm,Heavy Thunderstorms and Rain,150,2013-07-08 20:31:00
4:40 PM,73.4,69.8,88,30.03,3.0,South,18.4,28.8,0.19,Rain-Thunderstorm,Heavy Thunderstorms and Rain,180,2013-07-08 20:40:00
4:53 PM,72.0,70.0,93,30.04,4.0,East,8.1,-,0.25,Rain-Thunderstorm,Heavy Thunderstorms and Rain,100,2013-07-08 20:53:00
4:59 PM,71.6,69.8,94,30.03,4.0,ESE,6.9,-,0.01,Rain,Rain,110,2013-07-08 20:59:00
5:53 PM,73.0,70.0,90,30.01,9.0,ESE,6.9,-,0.01,,Mostly Cloudy,110,2013-07-08 21:53:00
6:03 PM,73.4,69.8,88,30.03,1.0,ESE,5.8,-,0.03,Rain,Heavy Rain,110,2013-07-08 22:03:00
6:14 PM,73.4,69.8,88,30.01,4.0,Variable,3.5,-,0.09,Rain,Heavy Rain,0,2013-07-08 22:14:00
6:53 PM,73.0,70.0,90,30.00,9.0,ESE,9.2,-,0.11,,Overcast,120,2013-07-08 22:53:00
7:53 PM,73.0,70.0,90,30.01,7.0,SE,9.2,-,N/A,,Overcast,140,2013-07-08 23:53:00
8:53 PM,73.0,70.0,90,30.01,8.0,SE,6.9,-,0.01,,Overcast,140,2013-07-09 00:53:00
9:53 PM,73.0,70.0,90,30.00,8.0,SSE,4.6,-,0.00,Rain,Light Rain,150,2013-07-09 01:53:00
10:53 PM,73.0,71.1,93,30.01,7.0,SSE,8.1,-,0.00,,Overcast,160,2013-07-09 02:53:00
11:53 PM,73.0,71.1,93,30.00,8.0,SSE,6.9,-,N/A,,Mostly Cloudy,150,2013-07-09 03:53:00